When you browse on this site, cookies collect data to enhance your experience and personalize the content and advertising you see.
Visit our Privacy Policy to learn more. By continuing to use the site, you agree to this use of cookies and data.
  • în România
  • Lista ţărilor
  • Pe 7 zile
  • Temperatura apei
  • Hartă satelitară
  • Meteo pe hartă
  • Widget-uri
  • user-avatar
    Intrare

    Meteo pe oră la Yablonovyy Ovrag

    Astăzi, 26 Martie, Marţi

    Timp Temperatura Precipitaţii Vânt Presiune Umiditate
    00:00 -5°C° 0 mm 6 m/s 752 mmHg 90%
    01:00 -5°C° 0 mm 5 m/s 753 mmHg 91%
    02:00 -6°C° 0 mm 5 m/s 754 mmHg 92%
    03:00 -5°C° 0 mm 4 m/s 754 mmHg 92%
    04:00 -5°C° 0 mm 4 m/s 755 mmHg 93%
    05:00 -7°C° 0 mm 4 m/s 755 mmHg 93%
    06:00 -8°C° 0 mm 4 m/s 756 mmHg 94%
    07:00 -5°C° 0 mm 4 m/s 756 mmHg 93%
    08:00 -4°C° 0 mm 4 m/s 757 mmHg 92%
    09:00 -3°C° 0 mm 4 m/s 757 mmHg 90%
    10:00 -2°C° 0 mm 4 m/s 758 mmHg 93%
    11:00 -2°C° 0 mm 4 m/s 758 mmHg 95%
    12:00 -1°C° 0 mm 4 m/s 758 mmHg 97%
    13:00 -1°C° 0 mm 4 m/s 758 mmHg 96%
    14:00 -1°C° 0 mm 5 m/s 758 mmHg 96%
    15:00 -1°C° 0 mm 5 m/s 758 mmHg 95%
    16:00 -1°C° 0 mm 5 m/s 758 mmHg 92%
    17:00 -2°C° 0 mm 6 m/s 757 mmHg 89%
    18:00 -2°C° 0 mm 6 m/s 757 mmHg 87%
    19:00 -2°C° 0.6 mm 7 m/s 757 mmHg 88%
    20:00 -1°C° 0.6 mm 8 m/s 756 mmHg 90%
    21:00 0°C° 0.6 mm 9 m/s 756 mmHg 91%
    22:00 0°C° 0.6 mm 8 m/s 757 mmHg 92%
    23:00 0°C° 0.6 mm 7 m/s 757 mmHg 93%

    Mâine, 27 Martie, Miercuri

    Timp Temperatura Precipitaţii Vânt Presiune Umiditate
    00:00 0°C° 0.6 mm 7 m/s 757 mmHg 93%
    01:00 -1°C° 0.6 mm 6 m/s 757 mmHg 94%
    02:00 -1°C° 0.6 mm 6 m/s 757 mmHg 95%
    03:00 0°C° 0.6 mm 5 m/s 758 mmHg 96%
    04:00 0°C° 0.6 mm 5 m/s 758 mmHg 96%
    05:00 0°C° 0.6 mm 4 m/s 758 mmHg 96%
    06:00 0°C° 0.6 mm 4 m/s 758 mmHg 97%
    07:00 0°C° 0.4 mm 5 m/s 758 mmHg 97%
    08:00 0°C° 0.4 mm 5 m/s 758 mmHg 96%
    09:00 0°C° 0.4 mm 5 m/s 758 mmHg 96%
    10:00 0°C° 0.1 mm 5 m/s 758 mmHg 97%
    11:00 0°C° 0.1 mm 5 m/s 759 mmHg 98%
    12:00 0°C° 0.1 mm 5 m/s 759 mmHg 99%
    13:00 0°C° 0 mm 4 m/s 759 mmHg 98%
    14:00 0°C° 0 mm 4 m/s 758 mmHg 96%
    15:00 0°C° 0 mm 4 m/s 758 mmHg 95%
    16:00 0°C° 0 mm 4 m/s 758 mmHg 91%
    17:00 0°C° 0 mm 4 m/s 758 mmHg 87%
    18:00 -1°C° 0 mm 4 m/s 758 mmHg 84%
    19:00 -1°C° 0 mm 4 m/s 758 mmHg 84%
    20:00 -1°C° 0 mm 4 m/s 758 mmHg 85%
    21:00 -1°C° 0 mm 4 m/s 759 mmHg 86%
    22:00 -1°C° 0 mm 4 m/s 758 mmHg 85%
    23:00 -2°C° 0 mm 4 m/s 758 mmHg 84%

    Poimâine, 28 Martie, Joi

    Timp Temperatura Precipitaţii Vânt Presiune Umiditate
    00:00 -2°C° 0 mm 4 m/s 758 mmHg 83%
    01:00 -2°C° 0 mm 4 m/s 758 mmHg 83%
    02:00 -3°C° 0 mm 4 m/s 757 mmHg 84%
    03:00 -3°C° 0 mm 4 m/s 757 mmHg 84%
    04:00 -2°C° 0 mm 3 m/s 757 mmHg 84%
    05:00 -2°C° 0 mm 3 m/s 757 mmHg 84%
    06:00 -4°C° 0 mm 3 m/s 757 mmHg 84%
    07:00 -2°C° 0 mm 2 m/s 757 mmHg 86%
    08:00 -1°C° 0 mm 2 m/s 757 mmHg 88%
    09:00 +1°C° 0 mm 2 m/s 757 mmHg 90%
    10:00 +1°C° 0 mm 2 m/s 757 mmHg 93%
    11:00 +1°C° 0 mm 2 m/s 756 mmHg 96%
    12:00 +2°C° 0 mm 2 m/s 756 mmHg 99%
    13:00 +3°C° 0 mm 1 m/s 756 mmHg 99%
    14:00 +3°C° 0 mm 1 m/s 756 mmHg 98%
    15:00 +3°C° 0 mm 1 m/s 755 mmHg 98%
    16:00 +2°C° 0.1 mm 2 m/s 755 mmHg 96%
    17:00 +2°C° 0.1 mm 2 m/s 755 mmHg 93%
    18:00 +1°C° 0.1 mm 2 m/s 755 mmHg 91%
    19:00 +1°C° 0.1 mm 2 m/s 755 mmHg 91%
    20:00 +1°C° 0.1 mm 2 m/s 754 mmHg 91%
    21:00 +1°C° 0.1 mm 2 m/s 754 mmHg 91%
    22:00 +1°C° 1 mm 2 m/s 754 mmHg 92%
    23:00 +1°C° 1 mm 2 m/s 754 mmHg 93%

    29 Martie, Vineri

    Timp Temperatura Precipitaţii Vânt Presiune Umiditate
    00:00 +1°C° 1 mm 2 m/s 753 mmHg 93%
    01:00 +1°C° 1.3 mm 2 m/s 753 mmHg 94%
    02:00 +1°C° 1.3 mm 2 m/s 753 mmHg 96%
    03:00 -1°C° 1.3 mm 2 m/s 753 mmHg 97%
    04:00 -1°C° 0.2 mm 2 m/s 753 mmHg 96%
    05:00 -1°C° 0.2 mm 3 m/s 753 mmHg 96%
    06:00 -2°C° 0.2 mm 4 m/s 753 mmHg 96%
    07:00 -2°C° 0 mm 4 m/s 753 mmHg 96%
    08:00 -2°C° 0 mm 4 m/s 754 mmHg 97%
    09:00 -2°C° 0 mm 4 m/s 754 mmHg 97%
    10:00 -2°C° 0.2 mm 4 m/s 754 mmHg 98%
    11:00 -1°C° 0.2 mm 4 m/s 754 mmHg 98%
    12:00 -1°C° 0.2 mm 4 m/s 754 mmHg 99%
    13:00 -1°C° 0.5 mm 5 m/s 754 mmHg 97%
    14:00 -2°C° 0.5 mm 5 m/s 755 mmHg 96%
    15:00 -3°C° 0.5 mm 6 m/s 755 mmHg 95%
    16:00 -3°C° 0.7 mm 7 m/s 755 mmHg 94%
    17:00 -3°C° 0.7 mm 7 m/s 755 mmHg 93%
    18:00 -3°C° 0.7 mm 7 m/s 755 mmHg 92%
    19:00 -3°C° 0.4 mm 7 m/s 756 mmHg 91%
    20:00 -3°C° 0.4 mm 7 m/s 756 mmHg 90%
    21:00 -3°C° 0.4 mm 7 m/s 757 mmHg 89%
    22:00 -4°C° 0 mm 6 m/s 757 mmHg 89%
    23:00 -5°C° 0 mm 5 m/s 757 mmHg 89%

    30 Martie, Sâmbătă

    Timp Temperatura Precipitaţii Vânt Presiune Umiditate
    00:00 -6°C° 0 mm 5 m/s 758 mmHg 89%
    01:00 -6°C° 0 mm 5 m/s 758 mmHg 90%
    02:00 -7°C° 0 mm 4 m/s 758 mmHg 90%
    03:00 -8°C° 0 mm 4 m/s 759 mmHg 91%
    04:00 -8°C° 0 mm 4 m/s 759 mmHg 92%
    05:00 -8°C° 0 mm 4 m/s 759 mmHg 93%
    06:00 -8°C° 0 mm 4 m/s 759 mmHg 93%
    07:00 -7°C° 0 mm 4 m/s 759 mmHg 93%
    08:00 -5°C° 0 mm 4 m/s 759 mmHg 92%
    09:00 -5°C° 0 mm 5 m/s 759 mmHg 92%
    10:00 -4°C° 0 mm 5 m/s 759 mmHg 92%
    11:00 -2°C° 0 mm 5 m/s 759 mmHg 92%
    12:00 -1°C° 0 mm 5 m/s 759 mmHg 93%
    13:00 -1°C° 0.1 mm 5 m/s 758 mmHg 94%
    14:00 -1°C° 0.1 mm 5 m/s 758 mmHg 95%
    15:00 -1°C° 0.1 mm 5 m/s 758 mmHg 97%
    16:00 -1°C° 0 mm 5 m/s 758 mmHg 96%
    17:00 -1°C° 0 mm 5 m/s 758 mmHg 95%
    18:00 -1°C° 0 mm 5 m/s 758 mmHg 95%
    19:00 -1°C° 0 mm 5 m/s 758 mmHg 95%
    20:00 -1°C° 0 mm 5 m/s 758 mmHg 96%
    21:00 -1°C° 0 mm 5 m/s 758 mmHg 96%
    22:00 -1°C° 0 mm 5 m/s 758 mmHg 96%
    23:00 -1°C° 0 mm 5 m/s 758 mmHg 97%

    31 Martie, Duminică

    Timp Temperatura Precipitaţii Vânt Presiune Umiditate
    00:00 -1°C° 0 mm 5 m/s 758 mmHg 97%
    01:00 -1°C° 0 mm 5 m/s 758 mmHg 97%
    02:00 -1°C° 0 mm 4 m/s 758 mmHg 98%
    03:00 -1°C° 0 mm 4 m/s 758 mmHg 98%
    04:00 -1°C° 0 mm 4 m/s 758 mmHg 98%
    05:00 -1°C° 0 mm 4 m/s 758 mmHg 98%
    06:00 -1°C° 0 mm 4 m/s 758 mmHg 98%
    07:00 -1°C° 0 mm 4 m/s 759 mmHg 98%
    08:00 0°C° 0 mm 4 m/s 759 mmHg 99%
    09:00 0°C° 0 mm 4 m/s 759 mmHg 99%
    10:00 0°C° 0 mm 4 m/s 759 mmHg 99%
    11:00 0°C° 0 mm 4 m/s 759 mmHg 99%
    12:00 0°C° 0 mm 4 m/s 759 mmHg 99%
    13:00 0°C° 0 mm 4 m/s 759 mmHg 99%
    14:00 0°C° 0 mm 4 m/s 759 mmHg 99%
    15:00 0°C° 0 mm 4 m/s 759 mmHg 99%
    16:00 +1°C° 0 mm 3 m/s 759 mmHg 99%
    17:00 +1°C° 0 mm 3 m/s 759 mmHg 98%
    18:00 +1°C° 0 mm 3 m/s 759 mmHg 98%
    19:00 +1°C° 0 mm 3 m/s 759 mmHg 98%
    20:00 +1°C° 0 mm 3 m/s 759 mmHg 98%
    21:00 0°C° 0 mm 4 m/s 759 mmHg 98%
    22:00 0°C° 0 mm 4 m/s 759 mmHg 98%
    23:00 0°C° 0 mm 4 m/s 759 mmHg 98%
    Arată mai mult